Location: St. Louis
(38.6270°N, 90.1994°W)
Time: 21:05:57
(UTC-06:00)

A-11 Canister half - Pass Details

Date: 03 December 2021
Orbit: 1524 x 1684 km, 47.3° (Epoch: 26 January)

Event Time Altitude Azimuth Distance (km) Brightness Sun altitude
Exits shadow 05:35:25 20° 300° (WNW) 3,188 10.1 -16.5°
Maximum altitude 05:42:43 56° 12° (NNE) 1,893 9.4 -15.1°
Drops below altitude 10° 05:52:17 10° 90° (E) 3,814 12.3 -13.3°
Sets 05:55:27 0° 95° (E) 4,776 13.3 -12.7°
